When you browse on this site, cookies collect data to enhance your experience and personalize the content and advertising you see.
Visit our Privacy Policy to learn more. By continuing to use the site, you agree to this use of cookies and data.
  • In Portugal
  • List of Countries
  • For 7 days
  • Water Temperature
  • Weather Map
  • Weather Widgets
  • user-avatar
    Login

    Hourly Weather Santiago del Estero

    Today, 3 April, Friday

    Time Temperature Precipitation Wind Pressure Humidity
    00:00 +17°C° 0 mm 2 mps 749 mmHg 67%
    01:00 +18°C° 0 mm 1 mps 748 mmHg 68%
    02:00 +16°C° 0 mm 1 mps 748 mmHg 69%
    03:00 +16°C° 0 mm 1 mps 748 mmHg 67%
    04:00 +16°C° 0 mm 1 mps 748 mmHg 66%
    05:00 +16°C° 0 mm 1 mps 747 mmHg 64%
    06:00 +18°C° 0 mm 1 mps 748 mmHg 62%
    07:00 +17°C° 0 mm 2 mps 748 mmHg 59%
    08:00 +17°C° 0 mm 2 mps 748 mmHg 57%
    09:00 +19°C° 0 mm 2 mps 748 mmHg 53%
    10:00 +21°C° 0 mm 2 mps 747 mmHg 48%
    11:00 +24°C° 0 mm 3 mps 747 mmHg 44%
    12:00 +25°C° 0 mm 3 mps 746 mmHg 43%
    13:00 +26°C° 0 mm 3 mps 745 mmHg 41%
    14:00 +27°C° 0 mm 4 mps 744 mmHg 40%
    15:00 +26°C° 0 mm 3 mps 744 mmHg 42%
    16:00 +26°C° 0 mm 3 mps 743 mmHg 44%
    17:00 +25°C° 0 mm 3 mps 742 mmHg 46%
    18:00 +24°C° 0 mm 3 mps 742 mmHg 49%
    19:00 +21°C° 0 mm 3 mps 742 mmHg 52%
    20:00 +19°C° 0 mm 2 mps 742 mmHg 55%
    21:00 +19°C° 0 mm 2 mps 741 mmHg 57%
    22:00 +18°C° 0 mm 2 mps 741 mmHg 60%
    23:00 +18°C° 0 mm 3 mps 741 mmHg 62%

    Tomorrow, 4 April, Saturday

    Time Temperature Precipitation Wind Pressure Humidity
    00:00 +18°C° 0 mm 2 mps 741 mmHg 65%
    01:00 +17°C° 0 mm 2 mps 740 mmHg 68%
    02:00 +17°C° 0 mm 2 mps 740 mmHg 72%
    03:00 +16°C° 0 mm 2 mps 740 mmHg 72%
    04:00 +16°C° 0 mm 3 mps 740 mmHg 73%
    05:00 +16°C° 0 mm 3 mps 739 mmHg 73%
    06:00 +16°C° 0 mm 3 mps 740 mmHg 70%
    07:00 +17°C° 0 mm 4 mps 740 mmHg 67%
    08:00 +18°C° 0 mm 4 mps 741 mmHg 64%
    09:00 +20°C° 0 mm 5 mps 741 mmHg 58%
    10:00 +22°C° 0 mm 5 mps 740 mmHg 53%
    11:00 +25°C° 0 mm 5 mps 740 mmHg 47%
    12:00 +26°C° 0 mm 5 mps 740 mmHg 45%
    13:00 +27°C° 0 mm 5 mps 740 mmHg 43%
    14:00 +29°C° 0 mm 4 mps 739 mmHg 40%
    15:00 +28°C° 0 mm 4 mps 739 mmHg 43%
    16:00 +28°C° 0 mm 3 mps 739 mmHg 45%
    17:00 +28°C° 0 mm 3 mps 738 mmHg 47%
    18:00 +26°C° 0 mm 3 mps 739 mmHg 50%
    19:00 +24°C° 0 mm 3 mps 739 mmHg 53%
    20:00 +23°C° 0 mm 2 mps 739 mmHg 56%
    21:00 +21°C° 0 mm 3 mps 739 mmHg 57%
    22:00 +21°C° 0 mm 3 mps 739 mmHg 59%
    23:00 +20°C° 0 mm 3 mps 739 mmHg 61%

    Day after tomorrow, 5 April, Sunday

    Time Temperature Precipitation Wind Pressure Humidity
    00:00 +20°C° 0 mm 3 mps 739 mmHg 62%
    01:00 +19°C° 0 mm 3 mps 739 mmHg 63%
    02:00 +19°C° 0 mm 2 mps 738 mmHg 65%
    03:00 +19°C° 0 mm 2 mps 738 mmHg 64%
    04:00 +18°C° 0 mm 2 mps 738 mmHg 64%
    05:00 +18°C° 0 mm 2 mps 737 mmHg 64%
    06:00 +19°C° 0 mm 3 mps 737 mmHg 62%
    07:00 +20°C° 0 mm 3 mps 738 mmHg 60%
    08:00 +20°C° 0 mm 4 mps 738 mmHg 58%
    09:00 +22°C° 0 mm 4 mps 738 mmHg 53%
    10:00 +26°C° 0 mm 4 mps 738 mmHg 48%
    11:00 +28°C° 0 mm 4 mps 738 mmHg 42%
    12:00 +29°C° 0 mm 4 mps 737 mmHg 41%
    13:00 +30°C° 0 mm 4 mps 737 mmHg 39%
    14:00 +32°C° 0 mm 4 mps 736 mmHg 38%
    15:00 +32°C° 0 mm 4 mps 736 mmHg 40%
    16:00 +31°C° 0 mm 3 mps 736 mmHg 43%
    17:00 +31°C° 0 mm 2 mps 736 mmHg 45%
    18:00 +29°C° 0 mm 2 mps 737 mmHg 48%
    19:00 +28°C° 0 mm 2 mps 737 mmHg 52%
    20:00 +26°C° 0 mm 2 mps 738 mmHg 55%
    21:00 +25°C° 0 mm 2 mps 738 mmHg 57%
    22:00 +25°C° 0 mm 2 mps 739 mmHg 59%
    23:00 +25°C° 0 mm 2 mps 739 mmHg 62%

    6 April, Monday

    Time Temperature Precipitation Wind Pressure Humidity
    00:00 +24°C° 0 mm 2 mps 739 mmHg 63%
    01:00 +24°C° 0 mm 2 mps 740 mmHg 64%
    02:00 +24°C° 0 mm 2 mps 740 mmHg 65%
    03:00 +24°C° 0 mm 3 mps 740 mmHg 65%
    04:00 +22°C° 0 mm 3 mps 741 mmHg 66%
    05:00 +22°C° 0 mm 4 mps 742 mmHg 67%
    06:00 +22°C° 0 mm 4 mps 743 mmHg 65%
    07:00 +23°C° 0 mm 4 mps 744 mmHg 62%
    08:00 +23°C° 0 mm 5 mps 745 mmHg 60%
    09:00 +25°C° 0 mm 5 mps 745 mmHg 57%
    10:00 +24°C° 0 mm 6 mps 746 mmHg 54%
    11:00 +26°C° 0 mm 6 mps 746 mmHg 52%
    12:00 +26°C° 0 mm 6 mps 746 mmHg 47%
    13:00 +26°C° 0 mm 6 mps 746 mmHg 43%
    14:00 +26°C° 0 mm 6 mps 746 mmHg 39%
    15:00 +26°C° 0 mm 5 mps 746 mmHg 39%
    16:00 +26°C° 0 mm 5 mps 746 mmHg 39%
    17:00 +26°C° 0 mm 4 mps 746 mmHg 39%
    18:00 +25°C° 0 mm 4 mps 747 mmHg 38%
    19:00 +24°C° 0 mm 3 mps 747 mmHg 38%
    20:00 +22°C° 0 mm 3 mps 748 mmHg 38%
    21:00 +21°C° 0 mm 3 mps 748 mmHg 37%
    22:00 +21°C° 0 mm 3 mps 749 mmHg 36%
    23:00 +21°C° 0 mm 3 mps 749 mmHg 35%

    7 April, Tuesday

    Time Temperature Precipitation Wind Pressure Humidity
    00:00 +20°C° 0 mm 3 mps 749 mmHg 35%
    01:00 +19°C° 0 mm 3 mps 749 mmHg 36%
    02:00 +18°C° 0 mm 3 mps 749 mmHg 37%
    03:00 +18°C° 0 mm 3 mps 749 mmHg 38%
    04:00 +17°C° 0 mm 3 mps 749 mmHg 39%
    05:00 +16°C° 0 mm 2 mps 749 mmHg 40%
    06:00 +16°C° 0 mm 2 mps 750 mmHg 40%
    07:00 +17°C° 0 mm 2 mps 750 mmHg 40%
    08:00 +17°C° 0 mm 2 mps 750 mmHg 40%
    09:00 +18°C° 0 mm 2 mps 750 mmHg 38%
    10:00 +20°C° 0 mm 2 mps 750 mmHg 36%
    11:00 +23°C° 0 mm 2 mps 750 mmHg 35%
    12:00 +24°C° 0 mm 2 mps 749 mmHg 35%
    13:00 +25°C° 0 mm 3 mps 748 mmHg 35%
    14:00 +26°C° 0 mm 3 mps 748 mmHg 35%
    15:00 +26°C° 0 mm 3 mps 747 mmHg 38%
    16:00 +25°C° 0 mm 3 mps 747 mmHg 40%
    17:00 +25°C° 0 mm 3 mps 747 mmHg 42%
    18:00 +24°C° 0 mm 3 mps 747 mmHg 45%
    19:00 +21°C° 0 mm 3 mps 747 mmHg 48%
    20:00 +20°C° 0 mm 3 mps 748 mmHg 51%
    21:00 +20°C° 0 mm 3 mps 748 mmHg 49%
    22:00 +20°C° 0 mm 3 mps 748 mmHg 47%
    23:00 +20°C° 0 mm 2 mps 749 mmHg 46%

    8 April, Wednesday

    Time Temperature Precipitation Wind Pressure Humidity
    00:00 +20°C° 0 mm 2 mps 749 mmHg 45%
    01:00 +19°C° 0 mm 2 mps 748 mmHg 45%
    02:00 +20°C° 0 mm 1 mps 748 mmHg 45%
    03:00 +20°C° 0 mm 1 mps 748 mmHg 46%
    04:00 +20°C° 0 mm 1 mps 748 mmHg 46%
    05:00 +20°C° 0 mm 1 mps 748 mmHg 47%
    06:00 +19°C° 0 mm 2 mps 748 mmHg 48%
    07:00 +19°C° 0 mm 2 mps 749 mmHg 49%
    08:00 +19°C° 0 mm 2 mps 749 mmHg 50%
    09:00 +19°C° 0 mm 2 mps 749 mmHg 48%
    10:00 +20°C° 0 mm 3 mps 749 mmHg 46%
    11:00 +20°C° 0 mm 3 mps 749 mmHg 45%
    12:00 +21°C° 0 mm 3 mps 748 mmHg 44%
    13:00 +21°C° 0 mm 3 mps 748 mmHg 43%
    14:00 +21°C° 0 mm 3 mps 747 mmHg 42%
    15:00 +22°C° 0 mm 3 mps 747 mmHg 42%
    16:00 +23°C° 0 mm 2 mps 746 mmHg 43%
    17:00 +23°C° 0 mm 2 mps 746 mmHg 43%
    18:00 +23°C° 0 mm 1 mps 746 mmHg 45%
    19:00 +22°C° 0 mm 1 mps 746 mmHg 46%
    20:00 +21°C° 0 mm 1 mps 746 mmHg 48%
    21:00 +21°C° 0 mm 1 mps 746 mmHg 49%
    22:00 +21°C° 0 mm 1 mps 747 mmHg 49%
    23:00 +19°C° 0 mm 0 mps 747 mmHg 49%
    Show more